User: anonymous   Login
Location: Unspecified
(0.0000°N, 0.0000°E)
Time: 23:42:34
(UTC+00:00)
Language:

STSS DEMO 2 (USA 209) - Orbit

View from above orbital plane
View from above orbital plane
View from above satellite
View from above satellite

Ground track
Ground track

The orbit data is extracted from the following two-line orbital elements,

1 35938U 09052B   16121.90883110 0.00000000  00000-0  00000-0 0    08
2 35938  57.9916  58.6380 0015152 237.0583 122.9417 12.79300055    07
Epoch (UTC): 30 April 2016 21:48:43
Eccentricity: 0.0015152
inclination: 57.9916°
perigee height: 1332 km
apogee height: 1356 km
right ascension of ascending node: 58.6380°
argument of perigee: 237.0583°
revolutions per day: 12.79300055
mean anomaly at epoch: 122.9417°
orbit number at epoch: 0

The dashed part of the orbit path shows where the satellite is in the earth's shadow,  

DLR